Regional Weather Roundup
Issued by NWS

Home | Current Version | Previous Version | Text Only | Print | Product List | Glossary Off
Versions: 1 2 3 4 5 6 7 8 9 10 11 12 13 14 15 16 17 18 19 20 21 22 23 24 25 26 27 28 29 30 31 32 33 34 35 36 37 38 39 40 41 42 43 44 45 46 47 48 49 50

000
ASUS43 KIND 271159
RWRIN

WEATHER ROUNDUP FOR INDIANA
NATIONAL WEATHER SERVICE INDIANAPOLIS IN
800 AM EDT FRI MAY 27 2016

NOTE: "FAIR" INDICATES FEW OR NO CLOUDS BELOW 12,000 FEET WITH NO
SIGNIFICANT WEATHER AND/OR OBSTRUCTIONS TO VISIBILITY.

* - STATION DOES NOT REPORT WEATHER SUCH AS PRECIPITATION OR FOG.

+ - STATION NOT QUALITY CONTROLLED BY THE NATIONAL WEATHER SERVICE.
    USE DATA WITH CAUTION...ESPECIALLY DEWPOINT AND RELATIVE
    HUMIDITY OBSERVATIONS.

INZ001>003-010>013-019-020-271300-
NORTHWEST INDIANA

CITY           SKY/WX    TMP DP  RH WIND       PRES   REMARKS
GARY /AIRPORT/ PTSUNNY   68  68 100 S7        29.92R
RENSSELAER +   MOSUNNY   66  63  88 S10G16    29.95R

$$

LMZ046-743>745-271300-
SOUTHERN LAKE MICHIGAN

STATION/POSITION TIME  TEMP    WIND        PRES    WAVE
                       AIR SEA DIR/SP/G            HT
                 (UTC) (F)     (DEG/KT/KT) (MB)    (FT)
BURNS HARBOR     1100   68     180/ 11/ 16 1012.9F
MICHIGAN CITY    1100   67     160/ 10/ 13   N/A
5NW MICH CITY    1100   63 58  180/  6/  8   N/A     1

$$

INZ004-005-014>016-021>024-271300-
NORTH CENTRAL INDIANA

CITY           SKY/WX    TMP DP  RH WIND       PRES   REMARKS
ELKHART        CLOUDY    66  66 100 S5        29.95F
GOSHEN         PTSUNNY   67  62  84 S7        29.96S
6HR MIN TEMP:  63; 6HR MAX TEMP:  67;

SOUTH BEND     MOSUNNY   67  63  87 S8        29.94F
6HR MIN TEMP:  64; 6HR MAX TEMP:  69;


$$

INZ006>009-017-018-025>027-271300-
NORTHEAST INDIANA

CITY           SKY/WX    TMP DP  RH WIND       PRES   REMARKS
ANGOLA *+        N/A     66  57  72 S5        29.97S
FORT WAYNE     PTSUNNY   67  62  84 S8        29.99F
6HR MIN TEMP:  63; 6HR MAX TEMP:  67;


$$

INZ028-029-035-036-043>045-051>053-271300-
WEST CENTRAL INDIANA

CITY           SKY/WX    TMP DP  RH WIND       PRES   REMARKS
CRAWFORDSVL +  MOSUNNY   64  64 100 S9        29.98S
6HR MIN TEMP:  63; 6HR MAX TEMP:  64; 6HR PCP:  0.01;

GREENCASTLE +  PTSUNNY   64  64 100 SE3       29.99F
LAFAYETTE      PTSUNNY   66  62  87 S7        29.96S
6HR MIN TEMP:  64; 6HR MAX TEMP:  66;

TERRE HAUTE    CLOUDY    67  63  87 S5        29.97F
6HR MIN TEMP:  66; 6HR MAX TEMP:  67; 6HR PCP: TRACE;


$$

INZ030>032-037>040-046>048-054>057-064-065-271300-
CENTRAL INDIANA

CITY           SKY/WX    TMP DP  RH WIND       PRES   REMARKS
COLUMBUS       MOSUNNY   64  64 100 SE5       30.02S FOG
FRANKFORT +      N/A     66  66 100 CALM      30.00S
6HR MIN TEMP:  64; 6HR MAX TEMP:  66;

INDIANAPOLIS   PTSUNNY   66  63  90 S7        29.99R
6HR MIN TEMP:  65; 6HR MAX TEMP:  66;

-EAGLE CREEK   CLOUDY    67  63  87 S5        30.00R
6HR MIN TEMP:  66; 6HR MAX TEMP:  67; 6HR PCP: TRACE;

KOKOMO *+      CLOUDY    66  61  82 S7        29.99S
6HR MIN TEMP:  63; 6HR MAX TEMP:  66;

SHELBYVILLE    CLOUDY    67  63  87 S9        30.01S
6HR MIN TEMP:  65; 6HR MAX TEMP:  67; 6HR PCP: TRACE;


$$

INZ033-034-041-042-049-050-058-059-271300-
EAST CENTRAL INDIANA

CITY           SKY/WX    TMP DP  RH WIND       PRES   REMARKS
MUNCIE         MOSUNNY   68  62  81 S8        30.01S
6HR MIN TEMP:  65; 6HR MAX TEMP:  68;


$$

INZ060-061-067>069-081>083-085>088-271300-
SOUTHWEST INDIANA

CITY           SKY/WX    TMP DP  RH WIND       PRES   REMARKS
EVANSVILLE     CLOUDY    67  63  87 SE6       29.98S
6HR MIN TEMP:  65; 6HR MAX TEMP:  67; 6HR PCP: TRACE;

HUNTINGBURG *+ MOSUNNY   66  63  88 S3        30.01R
6HR MIN TEMP:  64; 6HR MAX TEMP:  66;


$$

INZ062-063-066-070>080-084-089>092-271300-
SOUTH CENTRAL AND SOUTHEAST INDIANA

CITY           SKY/WX    TMP DP  RH WIND       PRES   REMARKS
BLOOMINGTON    PTSUNNY   65  62  90 SE6       29.99F
6HR MIN TEMP:  64; 6HR MAX TEMP:  66;

MADISON *+     MOSUNNY   64  63  94 S6        30.06R
SEYMOUR +      PTSUNNY   66  64  94 SE6       30.02S

$$





USA.gov is the U.S. government's official web portal to all federal, state and local government web resources and services.